Location: ??
(34.9170°N, 135.5016°E)
Time: 10:26:49
(UTC+00:00)

Explorer 7 - Pass Details

Date: 02 March 2021
Orbit: 484 x 677 km, 50.3° (Epoch: 14 April)

Event Time Altitude Azimuth Distance (km) Brightness Sun altitude
Rises 11:40:19 0° 312° (NW) 2,665 11.2 -34.5°
Reaches altitude 10° 11:42:36 10° 315° (NW) 1,745 10.0 -34.9°
Enters shadow 11:42:41 11° 315° (NW) 1,713 10.0 -34.9°
Maximum altitude 11:46:31 68° 38° (NE) 540 - -35.7°
Drops below altitude 10° 11:50:16 10° 123° (ESE) 1,670 - -36.4°
Sets 11:52:24 0° 125° (SE) 2,537 - -36.8°
